HULIANWANG DIGUI-151

导读 | 豆包AI

HULIANWANG DIGUI-151即中国卫星互联网低轨151星,于2026年1月19日由中国发射。该卫星属于中国低轨卫星互联网星座组网范畴,旨在构建覆盖全球的天基通信网络,可补全地面网络覆盖盲区,为全球各类终端提供高速稳定的互联网接入服务,进一步推动中国卫星互联网基础设施建设,支撑空天地一体化通信网络发展,服务全球通信互联需求。

Basic Information
目录编号:
67527
目录名称:
HULIANWANG DIGUI-151
国际标识:
2026-013F
轨道中心:
EARTH
卫星名称:
HULIANWANG DIGUI-151
卫星全名:
HULIANWANG DIGUI-151
卫星状态:
在轨 (已飞行75 天)
发射日期:
2026-01-19 UTC
国别 :
中国 (CN)
星等 :
--
Orbit Information
数据来源 国际轨道数据 AOE轨道数据
星历时间 2026-04-03T22:56:47+0800
10小时前
查看轨道信息
2026-03-31T15:00:00+0800
3天前
查看轨道信息
半长轴 7527.451km 7527.445km
偏心率 0.0000173 0.0000049
轨道倾角 50.008° 50.003°
近地点辐角 181.230° 148.329°
升交点赤经 263.018° 274.968°
平近点角 178.858° 100.640°
近地点 1149.183km 1149.271km
远地点 1149.445km 1149.345km
周期 108.326分钟 108.326分钟
每日圈数 13.293241 13.293257
Detailed Information
使用方式:
暂无
2D Orbit Map
3D Orbit Map
Orbit Altitude Analysis Chart
Orbit Inclination Analysis Chart
Orbit Comprehensive Analysis Chart
View Comprehensive Chart